Regional Weather Roundup
Issued by NWS Newport/Morehead, NC

Current Version | Previous Version | Text Only | Print | Product List | Glossary Off
Versions: 1 2 3 4 5 6 7 8 9 10 11 12 13 14 15 16 17 18 19 20 21 22 23 24 25 26 27 28 29 30 31 32 33 34 35 36 37 38 39 40 41 42 43 44 45 46 47 48 49 50
000 ASUS42 KMHX 252225 RWRMHX WEATHER ROUNDUP FOR EASTERN NORTH CAROLINA NATIONAL WEATHER SERVICE NEWPORT/MOREHEAD CITY NC 600 PM EDT MON MAY 25 2015 NOTE: "FAIR" INDICATES FEW OR NO CLOUDS BELOW 12,000 FEET WITH NO SIGNIFICANT WEATHER AND/OR OBSTRUCTIONS TO VISIBILITY NCZ015>017-031-032-045>047-102-103-252300- NORTH COAST CITY SKY/WX TMP DP RH WIND PRES REMARKS EDENTON SUNNY 79 60 53 S13 30.29S ELIZABETH CITY SUNNY 78 56 46 S15 30.29S KITTY HAWK CLEAR 75 59 56 S8 30.30S MANTEO SUNNY 75 59 58 S16 30.31F $$ NCZ045>047-081-094-103-104-252300- CENTRAL COAST CITY SKY/WX TMP DP RH WIND PRES REMARKS FRISCO MOSUNNY 76 61 59 S9 30.32F SWANQUARTER N/A 77 N/A N/A S10 30.27S $$ NCZ095-097-098-100-101-252300- SOUTHERN COAST CITY SKY/WX TMP DP RH WIND PRES REMARKS BEAUFORT SUNNY 75 61 61 S8 30.31S CEDAR ISLAND N/A 77 N/A N/A SE9G17 30.36S JACKSONVILLE SUNNY 77 59 53 S13G18 30.29F PINEY ISLAND CLEAR N/A N/A N/A S10 30.31S WILMINGTON MOSUNNY 78 61 55 S9 30.29F $$ NCZ011>013-027>030-043-044-078>080-089-090>093-098-252300- COASTAL PLAIN CITY SKY/WX TMP DP RH WIND PRES REMARKS AHOSKIE SUNNY 81 55 40 S8 30.27S CLINTON SUNNY 82 62 51 SE5 30.27S ELIZABETHTOWN SUNNY 82 56 40 S8 30.27S GOLDSBORO SUNNY 83 59 44 SE6 30.24S GREENVILLE SUNNY 82 55 39 S9 30.28S HAVELOCK MOSUNNY 77 59 53 S12 30.31S KENANSVILLE SUNNY 80 56 43 S5 30.29S KINSTON SUNNY 82 57 42 S12 30.29R NEW BERN SUNNY 79 59 50 SE10 30.31S RICHLANDS MOSUNNY 79 57 47 S10 30.30R ROCKY MOUNT SUNNY 84 56 38 S8 30.26S WASHINGTON SUNNY 80 57 45 S8 30.28F WHITEVILLE SUNNY 80 60 50 SE7 30.28S $$ AMZ130-135-150-152-154-156-158-170-250-252-270-ANZ085-086-088-633-658-670-252300- MARINE OBSERVATIONS STATION/POSITION TIME TEMP WIND PRES WAVE SWELL AIR SEA DIR/SP/G HT/PER HT/PER (UTC) (F) (DEG/KT/KT) (MB) (FT/S) (FT/S) CHESAPEAKE LIGHT 2200 69 160/ 20/ 23 1026.1 64 E VA BEACH 2150 67 65 150/ 6/ 8 1026.6 1/ 8 2/ 8 DUCK 2200 71 65 140/ 13/ 17 1025.1 2 E DUCK 2111 66 N/A 2/ 8 OREGON INLET 2200 74 77 180/ 12/ 15 1026.6 13E OREGON INLT 2200 70 N/A 1/ 8 HATTERAS CG 2200 75 76 160/ 9/ 11 1026.2 DIAMOND BUOY 2150 75 77 160/ 10/ 14 1026.7 2/ 7 2/ 7 CAPE LOOKOUT 2200 74 160/ 9/ 10 1026.1 BEAUFORT LAB 2200 75 75 160/ 7/ 10 1025.6 27 SE WRIGHTSVLE 2200 73 77 160/ 8/ 10 N/A 5 SE WRIGHTSVLE 2108 75 77 160/ 8/ 12 1026.0 225 S CAPE HAT 2150 75 75 120/ 12/ 16 1026.2 3/ 6 2/ 6 41 SE CHARLESTON 2150 76 76 100/ 10/ 12 1024.3 4/ 6 3/ 6 $$

USA.gov is the U.S. government's official web portal to all federal, state and local government web resources and services.